Regional Weather Roundup
Issued by NWS

Home | Current Version | Previous Version | Graphics & Text | Print | Product List | Glossary On
Versions: 1 2 3 4 5 6 7 8 9 10 11 12 13 14 15 16 17 18 19 20 21 22 23 24 25 26 27 28 29 30 31 32 33 34 35 36 37 38 39 40 41 42 43 44 45 46 47 48 49 50
000
ASUS43 KOAX 241302
RWRNE

WEATHER ROUNDUP FOR NEBRASKA
NATIONAL WEATHER SERVICE OMAHA NE
800 AM CDT FRI OCT 24 2014

NOTES: SATELLITE DATA IS BEING USED TO AUGMENT CLOUD COVER ABOVE
       12000 FEET.
       "FAIR" INDICATES FEW OR NO CLOUDS BELOW 12,000 FEET WITH NO
       SIGNIFICANT WEATHER AND/OR OBSTRUCTIONS TO VISIBILITY.

  * THESE STATIONS DO NOT REPORT WEATHER SUCH AS RAIN...SNOW OR FOG.

NEZ001>004-019>022-054>056-241400-
NEBRASKA PANHANDLE

CITY           SKY/WX    TMP DP  RH WIND       PRES   REMARKS
SCOTTSBLUFF    CLOUDY    49  37  63 N8        30.04R
ALLIANCE       CLOUDY    44  35  70 W8        30.02R
CHADRON        CLOUDY    43  36  76 CALM      29.99R
KIMBALL        CLOUDY    57  30  35 W13       30.08R
SIDNEY         CLOUDY    49  35  58 W5        30.06R
$$

NEZ057>060-069>072-079>082-241400-
SOUTHWEST NEBRASKA

CITY           SKY/WX    TMP DP  RH WIND       PRES   REMARKS
NORTH PLATTE   CLOUDY    40  37  89 NW6       29.98S
IMPERIAL       MOCLDY    50  37  61 W5        30.02R
LEXINGTON      CLOUDY    49  47  93 W5        29.97S
MCCOOK         CLOUDY    49  46  90 W8        30.00S
OGALLALA       CLOUDY    47  39  73 SW3       30.01S
$$

NEZ005>010-023>029-035>040-094-241400-
NORTH CENTRAL NEBRASKA

CITY           SKY/WX    TMP DP  RH WIND       PRES   REMARKS
VALENTINE      CLOUDY    40  36  86 SW7       29.93R
AINSWORTH      CLOUDY    47  37  67 W3        29.92R
BROKEN BOW     CLOUDY    54  44  69 SW3       29.93S
O`NEILL        CLOUDY    48  45  89 SW5       29.90S
ORD            CLOUDY    48  46  93 SW3       29.91S
THEDFORD       CLOUDY    50  38  65 W5        29.95S
$$

NEZ041-046>049-061>064-073>077-083>087-241400-
SOUTH CENTRAL NEBRASKA

CITY           SKY/WX    TMP DP  RH WIND       PRES   REMARKS
GRAND ISLAND   MOCLDY    57  53  86 SW12      29.93F FOG
AURORA         MOCLDY    55  55 100 SW10      29.93F FOG
HASTINGS       MOCLDY    55  52  89 SW9       29.94F
HEBRON         MOCLDY    57  55  91 SW8       29.97S FOG
HOLDREGE       CLOUDY    55  51  89 CALM      29.97F
KEARNEY *      CLOUDY    54  50  87 SW8       29.96S
YORK           CLOUDY    57  55  94 SW10      29.93F FOG
$$

NEZ011>018-030>034-042>045-241400-
NORTHEAST NEBRASKA

CITY           SKY/WX    TMP DP  RH WIND       PRES   REMARKS
NORFOLK        CLOUDY    54  52  93 VRB3      29.89S FOG
ALBION         CLOUDY    53  50  92 CALM      29.91S FOG
BLAIR          MOCLDY    58  56  94 S8        29.91F FOG
COLUMBUS *     CLOUDY    57  52  82 SW6       29.92S
FREMONT        CLOUDY    60  57  91 S8        29.91F FOG
TEKAMAH        CLOUDY    59  56  89 S9        29.90S
WAYNE          CLOUDY    53  52  96 CALM      29.89S FOG
$$

NEZ050>053-065>068-078-088>093-241400-
SOUTHEAST NEBRASKA

CITY           SKY/WX    TMP DP  RH WIND       PRES   REMARKS
LINCOLN        CLOUDY    59  57  93 S7        29.94F FOG
OMAHA EPPLEY   FOG       58  56  93 S13       29.93F VSB 1
BEATRICE         N/A     57  56  97 S8        29.97S FOG
FALLS CITY     PTCLDY    58  56  93 S9        29.99F FOG
NEBRASKA CITY    N/A     58  58 100 S10       29.97S FOG
PLATTSMOUTH    CLOUDY    58  56  95 S10G16    29.94F FOG
$$

NEZ044-045-051>053-067-241400-
OMAHA AREA

CITY           SKY/WX    TMP DP  RH WIND       PRES   REMARKS
OMAHA EPPLEY   FOG       58  56  93 S13       29.93F VSB 1
BLAIR          MOCLDY    58  56  94 S8        29.91F FOG
FREMONT        CLOUDY    60  57  91 S8        29.91F FOG
MILLARD        MOCLDY    58  56  94 SE6       29.93F FOG
OFFUTT AFB     CLOUDY    58  58 100 S12       29.93F
PLATTSMOUTH    CLOUDY    58  56  95 S10G16    29.94F FOG
WAHOO          FAIR      59  56  89 S9        29.91F FOG
$$



USA.gov is the U.S. government's official web portal to all federal, state and local government web resources and services.